This is the latest recevied weather packets stored in our database for station/object N7WGJ. If no packets are shown the sender has not sent any weather packets the latest 10 day(s).
| Time | Temp. | Humidity | Pressure | Rain* | Wind** | Luminosity | Snow |
|---|---|---|---|---|---|---|---|
| 1777516885 | 16.11° C | 63% | 1022.1 hPa | 0 mm | - | - | - |
| 1777516285 | 16.11° C | 62% | 1022.1 hPa | 0 mm | - | - | - |
| 1777515686 | 16.11° C | 62% | 1022.2 hPa | 0 mm | - | - | - |
| 1777515086 | 16.67° C | 62% | 1022.2 hPa | 0 mm | - | - | - |
| 1777514503 | 16.67° C | 61% | 1022.2 hPa | 0 mm | - | - | - |
| 1777513897 | 16.67° C | 61% | 1022.3 hPa | 0 mm | - | - | - |
| 1777513300 | 16.67° C | 60% | 1022.3 hPa | 0 mm | - | - | - |
| 1777512704 | 16.67° C | 60% | 1022.4 hPa | 0 mm | - | - | - |
| 1777512098 | 17.22° C | 60% | 1022.5 hPa | 0 mm | - | - | - |
| 1777511499 | 17.22° C | 60% | 1022.5 hPa | 0 mm | - | - | - |
| 1777510901 | 17.22° C | 60% | 1022.7 hPa | 0 mm | - | - | - |
| 1777510296 | 17.22° C | 59% | 1022.7 hPa | 0 mm | - | - | - |
| 1777509694 | 17.78° C | 56% | 1022.6 hPa | 0 mm | - | - | - |
| 1777509093 | 18.33° C | 54% | 1022.6 hPa | 0 mm | - | - | - |
| 1777508495 | 18.89° C | 55% | 1022.6 hPa | 0 mm | - | - | - |
| 1777507894 | 18.33° C | 59% | 1022.6 hPa | 0 mm | - | - | - |
| 1777507292 | 17.78° C | 58% | 1022.6 hPa | 0 mm | - | - | - |
| 1777506687 | 17.78° C | 58% | 1022.7 hPa | 0 mm | - | - | - |
| 1777506089 | 18.33° C | 58% | 1022.8 hPa | 0 mm | - | - | - |
| 1777505488 | 17.78° C | 58% | 1022.9 hPa | 0 mm | - | - | - |
| 1777504894 | 17.78° C | 58% | 1023 hPa | 0 mm | - | - | - |
| 1777504289 | 18.33° C | 59% | 1023 hPa | 0 mm | - | - | - |
| 1777503708 | 18.33° C | 59% | 1023.1 hPa | 0 mm | - | - | - |
| 1777503100 | 18.33° C | 59% | 1023.3 hPa | 0 mm | - | - | - |
| 1777502501 | 18.33° C | 59% | 1023.4 hPa | 0 mm | - | - | - |
* Rain latest hour (hover to see other rain measurements)
** Current wind speed in m/s (hover to see current wind gust speed)